Location: Newark
(52.3500°N, 175.9667°E)
Time: 09:58:18
(UTC+00:00)

Transit 4A - Pass Details

Date: 28 April 2021
Orbit: 870 x 974 km, 66.8° (Epoch: 07 May)

Event Time Altitude Azimuth Distance (km) Brightness Sun altitude
Rises 17:50:31 0° 320° (NW) 3,526 10.7 7.9°
Reaches altitude 10° 17:53:02 10° 321° (NW) 2,569 10.0 8.3°
Maximum altitude 17:59:00 85° 51° (NE) 889 8.1 9.2°
Drops below altitude 10° 18:04:49 10° 140° (SE) 2,516 10.6 10.0°
Sets 18:07:16 0° 141° (SE) 3,448 11.3 10.4°
